Location: Lomond
(50.3500°N, 112.6333°W)
Time: 10:19:48
(UTC+00:00)

XW-2F - Visible Passes

Search period start: 08 December 2023 00:00
Search period end: 18 December 2023 00:00
Orbit: 396 x 403 km, 97.4° (Epoch: 08 December)

Date Brightness Start Highest point End Pass type
(mag) Time Alt. Az. Time Alt. Az. Time Alt. Az.
09 Dec ? 14:12:09 10° NE 14:14:42 22° E 14:17:13 10° SSE visible
11 Dec ? 14:03:13 10° NE 14:05:25 18° E 14:07:36 10° SE visible
13 Dec ? 13:54:04 10° ENE 13:55:43 14° E 13:57:22 10° ESE visible
14 Dec ? 14:33:53 10° NNE 14:36:51 41° E 14:39:47 10° S visible
15 Dec ? 13:45:11 10° E 13:45:35 10° E 13:46:00 10° E visible
16 Dec ? 14:23:47 10° NNE 14:26:35 30° E 14:29:20 10° SSE visible
